Pittsfield, MA

5:04 PM EDT on August 20, 2019 (GMT -0400)
Pittsfield Municipal

Weather History for KPSF - June, 2019

Change the Weather History Date:

Monday, June 10, 2019

  Actual Average Record
Temperature  
Mean Temperature 62 °F 62 °F  
Max Temperature 77 °F 73 °F 99 °F (1933)
Min Temperature 47 °F 52 °F 38 °F (1946)
Degree Days  
Heating Degree Days 3 4  
Month to date heating degree days 34 53  
Since 1 June heating degree days 34 53  
Since 1 July heating degree days 6939 7413  
Cooling Degree Days 0 2  
Month to date cooling degree days 1 13  
Year to date cooling degree days 7 26  
Since 1 June cooling degree days 1 13  
Growing Degree Days 12 (Base 50)    
Moisture  
Dew Point 53 °F    
Average Humidity 69    
Maximum Humidity 93    
Minimum Humidity 23    
Precipitation  
Precipitation 0.27 in 0.16 in 1.35 in (1944)
Month to date precipitation 1.26 1.79  
Year to date precipitation 18.98 18.83  
Sea Level Pressure  
Sea Level Pressure 30.02 in    
Wind  
Wind Speed 4 mph ()    
Max Wind Speed 17 mph    
Max Gust Speed 26 mph    
Visibility 9.2 miles    
Events Rain    
T = Trace of Precipitation, MM = Missing Value Source: Averaged Metar Reports

Daily Weather History Graph

Daily Weather History Graph

Search for Another Location

Airport or City:

Astronomy

Jun. 10, 2019 Rise Set
Actual Time 5:15 AM EDT 8:29 PM EDT
Civil Twilight 4:41 AM EDT 9:04 PM EDT
Nautical Twilight 3:56 AM EDT 9:48 PM EDT
Astronomical Twilight 3:02 AM EDT 10:42 PM EDT
Moon 1:07 PM EDT (6/10) 1:36 AM EDT (6/10)
Length of Visible Light 16h 22m
Length of Day
15h 13m
First Quarter, 55% of the Moon is Illuminated
Jun 10
First Quarter
Jun 17
Full
Jun 25
Last Quarter
Jul 2
New
Jul 9
First Quarter

Hourly Weather History & Observations

Time (EDT) Temp. Dew Point Humidity Pressure Visibility Wind Dir Wind Speed Gust Speed Precip Events Conditions
12:54 AM 53.1 °F 45.0 °F 74% 30.20 in 10.0 mi Calm Calm - N/A   Clear
1:54 AM 52.0 °F 45.0 °F 77% 30.19 in 10.0 mi Calm Calm - N/A   Clear
2:54 AM 50.0 °F 45.0 °F 83% 30.17 in 10.0 mi Calm Calm - N/A   Clear
3:54 AM 48.9 °F 45.0 °F 86% 30.15 in 10.0 mi Calm Calm - N/A   Clear
4:54 AM 48.9 °F 46.0 °F 90% 30.16 in 10.0 mi Calm Calm - N/A   Clear
5:54 AM 48.0 °F 45.0 °F 89% 30.16 in 10.0 mi Calm Calm - N/A   Clear
6:54 AM 53.1 °F 46.9 °F 80% 30.15 in 10.0 mi NE 3.5 mph - N/A   Clear
7:54 AM 59.0 °F 44.1 °F 58% 30.14 in 10.0 mi NNE 3.5 mph - N/A   Clear
8:54 AM 64.9 °F 44.1 °F 47% 30.12 in 10.0 mi NNE 4.6 mph - N/A   Clear
9:54 AM 70.0 °F 44.1 °F 39% 30.10 in 10.0 mi Calm Calm - N/A   Clear
10:54 AM 73.0 °F 33.1 °F 23% 30.09 in 10.0 mi SSE 12.7 mph 21.9 mph N/A   Clear
11:54 AM 73.9 °F 37.9 °F 27% 30.07 in 10.0 mi Variable 6.9 mph - N/A   Clear
12:54 PM 73.9 °F 39.9 °F 29% 30.05 in 10.0 mi South 10.4 mph - N/A   Clear
1:54 PM 73.9 °F 44.1 °F 34% 30.03 in 10.0 mi ESE 10.4 mph - N/A   Clear
2:54 PM 75.9 °F 52.0 °F 43% 30.01 in 10.0 mi ESE 15.0 mph 21.9 mph N/A   Clear
3:54 PM 73.9 °F 55.9 °F 53% 29.99 in 10.0 mi SSE 13.8 mph - N/A   Clear
4:54 PM 72.0 °F 57.0 °F 59% 29.96 in 10.0 mi ESE 13.8 mph 23.0 mph N/A   Mostly Cloudy
5:42 PM 71.1 °F 60.1 °F 68% 29.99 in 10.0 mi SE 12.7 mph - N/A   Overcast
5:54 PM 70.0 °F 60.1 °F 71% 29.94 in 10.0 mi ESE 10.4 mph 16.1 mph 0.00 in Rain Light Rain
6:05 PM 69.1 °F 61.0 °F 75% 29.98 in 10.0 mi East 8.1 mph 19.6 mph 0.00 in Rain Light Rain
6:26 PM 68.0 °F 61.0 °F 78% 29.98 in 10.0 mi ESE 8.1 mph 19.6 mph 0.00 in Rain Light Rain
6:54 PM 66.9 °F 62.1 °F 84% 29.92 in 5.0 mi ESE 6.9 mph - 0.02 in Rain Light Rain
7:22 PM 66.0 °F 62.1 °F 87% 29.96 in 5.0 mi ESE 9.2 mph - 0.04 in Rain Light Rain
7:29 PM 66.0 °F 63.0 °F 90% 29.96 in 4.0 mi East 6.9 mph - 0.05 in Rain Light Rain
7:54 PM 66.0 °F 63.0 °F 90% 29.90 in 4.0 mi East 4.6 mph - 0.10 in Rain Light Rain
8:54 PM 66.0 °F 63.0 °F 90% 29.88 in 8.0 mi Variable 4.6 mph - 0.06 in Rain Light Rain
9:54 PM 66.9 °F 63.0 °F 87% 29.86 in 10.0 mi Variable 5.8 mph - 0.02 in   Overcast
10:54 PM 66.9 °F 63.0 °F 87% 29.83 in 10.0 mi SSE 8.1 mph - 0.01 in Rain Light Rain
11:50 PM 66.2 °F 62.6 °F 88% 29.88 in 10.0 mi SE 11.5 mph - 0.00 in Rain Light Rain
11:54 PM 66.9 °F 63.0 °F 87% 29.81 in 10.0 mi SSE 9.2 mph - 0.00 in Rain Light Rain